Regional Weather Roundup
Issued by NWS Upton, NY

Current Version | Previous Version | Text Only | Print | Product List | Glossary Off
Versions: 1 2 3 4 5 6 7 8 9 10 11 12 13 14 15 16 17 18 19 20 21 22 23 24 25 26 27 28 29 30 31 32 33 34 35 36 37 38 39 40 41 42 43 44 45 46 47 48 49
000 ASUS41 KOKX 180205 RWROKX REGIONAL WEATHER ROUNDUP NATIONAL WEATHER SERVICE NEW YORK NY 900 PM EST WED DEC 17 2014 NOTE: "FAIR" INDICATES FEW OR NO CLOUDS BELOW 12,000 FEET WITH NO SIGNIFICANT WEATHER AND/OR OBSTRUCTIONS TO VISIBILITY. NYZ071-072-176-178-NJZ106-104-180300- NEW YORK CITY METRO AREA CITY SKY/WX TMP DP RH WIND PRES REMARKS CENTRAL PARK CLOUDY 45 32 60 W8 29.92R LAGUARDIA APRT MOCLDY 45 33 63 W15G24 29.89R KENNEDY INTL CLOUDY 47 31 53 NW23G29 29.90R NEWARK/LIBERTY MOCLDY 44 29 55 W13G24 29.91R BRNX BOT. GARD N/A 43 32 65 W28 29.88S TETERBORO CLOUDY 43 33 68 W12 29.89R $$ NYZ177-179-078>081-180300- LONG ISLAND NEW YORK CITY SKY/WX TMP DP RH WIND PRES REMARKS FARMINGDALE MOCLDY 44 33 65 NW6 29.88R ISLIP PTCLDY 44 31 60 NW12G23 29.85R SHIRLEY CLEAR 43 33 68 W7 29.86R WESTHAMPTON CLOUDY 45 32 60 W10 29.86R MONTAUK POINT N/A 46 41 82 W10 29.82S $$ NYZ052-065-067-180300- HUDSON VALLEY CITY SKY/WX TMP DP RH WIND PRES REMARKS WHITE PLAINS MOCLDY 41 31 67 NW8 29.86R NEWBURGH CLOUDY 39 34 81 W12 29.88S WCI 32 MONTGOMERY CLOUDY 40 31 70 W7 29.87S POUGHKEEPSIE CLOUDY 43 29 57 W12G21 29.86R ALBANY CLOUDY 38 29 70 W8 29.86S WCI 32 $$ NJZ001-105-106-008-010-013-015-019>022-104-180300- NEW JERSEY CITY SKY/WX TMP DP RH WIND PRES REMARKS NEWARK/LIBERTY MOCLDY 44 29 55 W13G24 29.91R TETERBORO CLOUDY 43 33 68 W12 29.89R CALDWELL MOCLDY 42 29 59 W7 29.91R MORRISTOWN CLOUDY 43 30 61 W9 29.91R SOMERVILLE PTCLDY 42 28 57 NW7 29.90S SUSSEX CLOUDY 41 30 65 VRB5 29.90R ANDOVER N/A 40 27 59 VRB3 29.90S TRENTON CLOUDY 41 26 55 VRB7 29.94R MILLVILLE CLEAR 40 27 59 NW13 29.98S WCI 32 ATLANTIC CITY CLEAR 41 27 57 W12G21 29.97R WRIGHTSTOWN CLEAR 41 27 57 W12 29.93R TOMS RIVER CLEAR 41 28 60 W9 29.95R BELMAR CLEAR 43 27 52 W8 29.92R $$ PAZ047>061-062-071-180300- EASTERN PENNSYLVANIA CITY SKY/WX TMP DP RH WIND PRES REMARKS PHILADELPHIA CLEAR 42 23 46 W14 29.99R ALLENTOWN CLEAR 39 25 57 W15G23 29.94S WCI 31 SCRANTON CLOUDY 38 24 57 W15G24 29.91R WCI 29 $$ CTZ002-004>006-009-010-012-RIZ004-006-007-MAZ004-011-015-180300- SOUTHERN NEW ENGLAND IN CT CITY SKY/WX TMP DP RH WIND PRES REMARKS BRADLEY INTL CLOUDY 41 30 65 NW12 29.81S HARTFORD CLOUDY 42 33 70 VRB7 29.83S DANBURY CLOUDY 40 30 67 SW6 29.86R WTRBRY/OXFORD MOCLDY 39 28 65 NW7 29.83S WCI 34 BRIDGEPORT CLEAR 43 33 68 W7 29.85S MERIDEN MOCLDY 41 34 76 W6 29.84R NEW HAVEN MOCLDY 47 34 60 NW9 29.85R CHESTER FAIR 41 37 87 NW8 29.81S GROTON CLOUDY 43 36 76 W12 29.79S WILLIMANTIC CLOUDY 43 32 65 VRB7 29.80S IN RI CITY SKY/WX TMP DP RH WIND PRES REMARKS PROVIDENCE CLOUDY 44 34 67 NW12 29.77R BLOCK ISLAND CLOUDY 46 39 76 W12G20 29.78S WESTERLY CLOUDY 46 37 71 W6 29.79S IN MA CITY SKY/WX TMP DP RH WIND PRES REMARKS BOSTON CLOUDY 44 36 73 W15G25 29.72F WORCESTER CLOUDY 37 34 89 W15 29.73S WCI 28 WESTFIELD CLOUDY 40 29 64 NW17G23 29.80F WCI 31 PROVINCETOWN CLOUDY 46 39 76 W14G21 29.71S NANTUCKET MOCLDY 46 38 73 W13 29.74S $$ ANZ330-335-338-340-345-350-353-355-180300- COASTAL MARINE OBSERVATIONS STATION/POSITION TIME SKY/WX TEMP WIND PRES VSBY WAVE AIR SEA DIR/SP/G HT/PER (UTC) (F) (DEG/KT/KT) (MB) (MI) (FT/S) NY HARB ENTRANCE 0200 45 46 270/ 19/ 23 1012.5 3/ 4 4S FIRE IS 0200 46 N/A 3/ 4 20S FIRE ISLAND 0100 47 50 1011.5 5/ 5 23SW MTP 0200 N/A 5/ 6 HUDSON CANYON 0200 49 55 290/ 23/ 29 1011.5 EXECUTION ROCKS 0200 45 42 280/ 10/ 14 N/A WESTERN LI SOUND 0200 45 280/ 12/ 14 N/A 1/ 3 CENTRAL LI SOUND 0100 45 45 290/ 16/ 19 N/A 2/ 4 EASTERN LI SOUND NOT AVBL ROBBINS REEF 0200 44 290/ 13/ 16 1011.3 $$ >>>>>>>>>>>>>>>>>>>>>>>>>>>> KEY <<<<<<<<<<<<<<<<<<<<<<<<<<< > < > SKY/WX - SKY CONDITION/PRESENT WEATHER < > TMP - TEMPERATURE IN FAHRENHEIT < > DP - DEWPOINT IN FAHRENHEIT < > RH - RELATIVE HUMIDITY IN PERCENT < > WIND - DIRECTION AND SPEED IN MPH < > PRES - MEAN SEA LEVEL PRESSURE IN INCHES OF HG < > WCI - WIND CHILL INDEX < > VSB - VISIBILITY IN MILES < > HX - HEAT INDEX < > TC - TEMPERATURE IN CELSIUS < > VRB - VARIABLE WIND DIRECTION < > < >>>>>>>>>>>>>>>>>>>>>>>>>>>> KEY <<<<<<<<<<<<<<<<<<<<<<<<<<<

USA.gov is the U.S. government's official web portal to all federal, state and local government web resources and services.